Location: Allen Generating Plant
(35.0740°N, 90.1490°W)
Time: 14:30:35
(UTC+00:00)

Vanguard 1 - Visible Passes

Search period start: 02 November 2024 00:00
Search period end: 12 November 2024 00:00
Orbit: 649 x 3824 km, 34.3° (Epoch: 01 November)

Date Brightness Start Highest point End Pass type
(mag) Time Alt. Az. Time Alt. Az. Time Alt. Az.
02 Nov 12.8 07:22:51 37° E 07:22:51 37° E 07:32:43 10° E visible
02 Nov 11.9 09:35:27 59° W 09:39:30 79° SSW 10:01:27 10° ESE visible
02 Nov 13.1 11:48:35 10° W 12:04:46 51° SSW 12:26:43 10° SE visible
03 Nov 12.5 07:41:28 45° E 07:41:28 45° E 07:53:12 10° E visible
03 Nov 12.0 09:54:05 49° W 09:59:31 73° SSW 10:21:33 10° ESE visible
04 Nov 12.3 08:00:07 53° E 08:00:07 53° E 08:13:41 10° E visible
04 Nov 12.1 10:12:43 40° W 10:19:31 65° SSW 10:41:24 10° SE visible
05 Nov 12.1 08:18:47 61° ESE 08:18:47 61° ESE 08:34:05 10° ESE visible
05 Nov 12.3 10:31:24 32° W 10:39:28 57° SSW 11:00:57 10° SE visible
06 Nov 13.6 06:24:52 13° E 06:24:52 13° E 06:26:16 10° E visible
06 Nov 11.9 08:37:28 68° SE 08:37:28 68° SE 08:54:22 10° ESE visible
06 Nov 12.5 10:50:05 25° W 10:59:24 48° SSW 11:20:09 10° SE visible
07 Nov 13.4 06:43:34 17° E 06:43:34 17° E 06:46:36 10° E visible
07 Nov 11.9 08:56:11 68° S 08:56:11 68° S 09:14:28 10° ESE visible
07 Nov 12.7 11:08:48 19° W 11:19:19 40° SSW 11:38:57 10° SSE visible
08 Nov 13.3 07:02:17 22° E 07:02:17 22° E 07:06:57 10° E visible
08 Nov 11.9 09:14:54 62° SSW 09:15:01 62° SSW 09:34:19 10° SE visible
08 Nov 13.0 11:27:31 13° W 11:39:14 32° SW 11:57:16 10° SSE visible
09 Nov 13.1 07:21:01 26° ESE 07:21:01 26° ESE 07:27:15 10° ESE visible
09 Nov 12.0 09:33:38 52° SW 09:34:54 53° SSW 09:53:52 10° SE visible
09 Nov 13.2 11:47:17 10° W 11:59:09 25° SW 12:14:55 10° S visible
10 Nov 12.9 07:39:46 31° ESE 07:39:46 31° ESE 07:47:27 10° ESE visible
10 Nov 12.2 09:52:23 42° SW 09:54:47 44° SSW 10:13:03 10° SE visible
11 Nov 12.7 07:58:31 34° SE 07:58:31 34° SE 08:07:28 10° ESE visible
11 Nov 12.4 10:11:08 32° SW 10:14:42 36° SSW 10:31:50 10° SSE visible
